GW0416 Weather Reports


time (UTC)temp
C
wind
direction
speed
KPH
gust
KPH
rain 1hr
cm
rain 24hr
cm
rain mn
cm
humidity
%
barometer
mb
20260509213033 16 242 14.5 19.3 0.00 0.00 0.00 41 1018.1
20260509211531 16 240 3.2 20.9 0.00 0.00 0.00 40 1018.1
20260509210031 16 263 6.4 14.5 0.00 0.00 0.00 40 1018.1
20260509204531 17 187 0.0 11.3 0.00 0.00 0.00 39 1018.1
20260509203036 16 269 8.0 22.5 0.00 0.00 0.00 39 1018.0
20260509201530 16 0 1.6 11.3 0.00 0.00 0.00 40 1017.9
20260509200038 16 146 4.8 17.7 0.00 0.00 0.00 40 1017.9
20260509194545 16 307 6.4 12.9 0.00 0.00 0.00 40 1018.0
20260509193036 16 232 12.9 19.3 0.00 0.00 0.00 40 1018.2
20260509191533 16 60 1.6 14.5 0.00 0.00 0.00 40 1018.1
20260509190032 16 257 4.8 16.1 0.00 0.00 0.00 41 1018.1
20260509184536 16 37 3.2 9.7 0.00 0.00 0.00 39 1018.0
20260509183048 16 213 1.6 16.1 0.00 0.00 0.00 40 1018.1
20260509181530 16 300 8.0 14.5 0.00 0.00 0.00 39 1018.0
20260509180031 16 95 4.8 9.7 0.00 0.00 0.00 39 1018.0
20260509174543 15 276 3.2 14.5 0.00 0.00 0.00 41 1017.9
20260509173030 15 295 3.2 16.1 0.00 0.00 0.00 41 1017.8
20260509171540 15 271 8.0 17.7 0.00 0.00 0.00 42 1017.8
20260509170033 15 168 3.2 14.5 0.00 0.00 0.00 41 1017.6
20260509164534 15 342 16.1 22.5 0.00 0.00 0.00 39 1017.6
20260509163043 15 350 11.3 20.9 0.00 0.00 0.00 39 1017.5
20260509161541 15 35 9.7 17.7 0.00 0.00 0.00 43 1017.4
20260509160030 14 42 3.2 17.7 0.00 0.00 0.00 45 1017.2
20260509154530 14 360 8.0 16.1 0.00 0.00 0.00 47 1017.1
20260509153044 13 49 8.0 14.5 0.00 0.00 0.00 48 1017.0
20260509151536 13 57 4.8 12.9 0.00 0.00 0.00 50 1017.1
20260509150039 12 36 4.8 9.7 0.00 0.00 0.00 51 1016.9
20260509144531 12 23 6.4 8.0 0.00 0.00 0.00 52 1016.8
20260509143034 11 322 1.6 6.4 0.00 0.00 0.00 54 1016.7
20260509141530 11 23 4.8 12.9 0.00 0.00 0.00 55 1016.7
20260509140035 10 20 8.0 12.9 0.00 0.00 0.00 55 1016.5
20260509134532 10 23 11.3 16.1 0.00 0.00 0.00 56 1016.4
20260509133032 10 33 9.7 14.5 0.00 0.00 0.00 57 1016.3
20260509131532 10 22 12.9 20.9 0.00 0.00 0.00 57 1016.2
20260509130031 9 17 8.0 12.9 0.00 0.00 0.00 57 1016.0
20260509124532 9 36 6.4 12.9 0.00 0.00 0.00 57 1015.8
20260509123035 10 279 4.8 11.3 0.00 0.00 0.00 57 1015.6
20260509121533 9 360 14.5 20.9 0.00 0.00 0.00 57 1015.5
20260509120031 10 26 4.8 9.7 0.00 0.00 0.00 57 1015.3
20260509114530 10 257 3.2 6.4 0.00 0.00 0.00 56 1015.1
20260509113030 10 194 6.4 9.7 0.00 0.00 0.00 56 1015.0
20260509111530 10 123 4.8 17.7 0.00 0.00 0.00 55 1014.9
20260509110031 10 38 6.4 19.3 0.00 0.00 0.00 55 1014.3
20260509104533 10 13 9.7 12.9 0.00 0.00 0.00 55 1014.1
20260509103028 10 27 12.9 19.3 0.00 0.00 0.00 55 1014.0
20260509101530 10 24 12.9 16.1 0.00 0.00 0.00 55 1013.9
20260509100030 10 5 8.0 16.1 0.00 0.00 0.00 55 1013.7
20260509094531 11 24 12.9 16.1 0.00 0.00 0.00 55 1013.6
20260509093039 10 38 9.7 14.5 0.00 0.00 0.00 55 1013.6
20260509091529 11 19 12.9 19.3 0.00 0.00 0.00 53 1013.5
20260509090029 11 38 9.7 17.7 0.00 0.00 0.00 54 1013.3
20260509084532 11 30 11.3 14.5 0.00 0.00 0.00 54 1013.2
20260509083032 12 53 11.3 16.1 0.00 0.00 0.00 53 1013.0
20260509081532 11 56 8.0 12.9 0.00 0.00 0.00 52 1013.1
20260509080031 12 69 6.4 12.9 0.00 0.00 0.00 52 1012.9
20260509074530 12 51 8.0 14.5 0.00 0.00 0.00 51 1012.8
20260509073029 12 51 12.9 19.3 0.00 0.00 0.00 50 1012.7
20260509071533 12 57 17.7 24.1 0.00 0.00 0.00 51 1012.3
20260509070038 12 12 11.3 16.1 0.00 0.00 0.00 51 1012.3
20260509064537 12 344 3.2 6.4 0.00 0.00 0.00 50 1012.4
20260509063032 12 53 6.4 14.5 0.00 0.00 0.00 49 1012.1
20260509061529 12 57 11.3 19.3 0.00 0.00 0.00 49 1011.9
20260509060036 12 32 14.5 19.3 0.00 0.00 0.00 49 1011.8
20260509054531 12 28 8.0 12.9 0.00 0.00 0.00 47 1011.9
20260509053032 12 293 6.4 12.9 0.00 0.00 0.00 43 1011.9
20260509051529 13 288 8.0 11.3 0.00 0.00 0.00 41 1011.5
20260509050044 13 316 8.0 17.7 0.00 0.00 0.00 37 1011.2
20260509044531 14 5 16.1 20.9 0.00 0.00 0.00 36 1010.9
20260509043030 15 22 19.3 25.7 0.00 0.00 0.00 34 1010.7
20260509041532 14 318 11.3 16.1 0.00 0.00 0.00 34 1010.5
20260509040031 15 344 12.9 16.1 0.00 0.00 0.00 33 1010.2
20260509034532 15 5 12.9 17.7 0.00 0.00 0.00 31 1010.0
20260509033029 16 14 16.1 22.5 0.00 0.00 0.00 30 1009.9
20260509031535 16 5 12.9 16.1 0.00 0.00 0.00 29 1009.7
20260509030038 16 11 12.9 16.1 0.00 0.00 0.00 29 1009.3
20260509024537 17 17 14.5 19.3 0.00 0.00 0.00 28 1009.1
20260509023033 17 22 16.1 22.5 0.00 0.00 0.00 27 1009.0
20260509021530 18 21 17.7 24.1 0.00 0.00 0.00 26 1008.8
20260509020031 19 16 19.3 30.6 0.00 0.00 0.00 25 1008.8
20260509014532 20 9 19.3 35.4 0.00 0.00 0.00 25 1008.6
20260509013036 20 360 25.7 33.8 0.00 0.00 0.00 24 1008.6
20260509011530 20 9 29.0 40.2 0.00 0.00 0.00 25 1008.6
20260509010032 20 347 27.4 40.2 0.00 0.00 0.00 25 1008.6
20260509004538 21 355 29.0 37.0 0.00 0.00 0.00 25 1008.5
20260509003028 21 346 27.4 41.8 0.00 0.00 0.00 24 1008.4
20260509001532 21 324 24.1 37.0 0.00 0.00 0.00 22 1008.4
20260509000036 21 311 29.0 41.8 0.00 0.00 0.00 22 1008.3
20260508234531 21 298 22.5 45.1 0.00 0.00 0.00 23 1008.4
20260508233032 21 290 32.2 46.7 0.00 0.00 0.00 22 1008.3
20260508231530 22 323 32.2 45.1 0.00 0.00 0.00 19 1008.4
20260508230030 22 320 30.6 48.3 0.00 0.00 0.00 19 1008.5
20260508224532 22 348 22.5 51.5 0.00 0.00 0.00 19 1008.3
20260508223036 22 325 25.7 45.1 0.00 0.00 0.00 19 1008.5
20260508221536 22 306 35.4 49.9 0.00 0.00 0.00 19 1008.5
20260508220036 22 292 33.8 51.5 0.00 0.00 0.00 20 1008.5
20260508214528 22 306 33.8 51.5 0.00 0.00 0.00 21 1008.6